Location: Lyndhurst
(50.8667°N, 1.5833°W)
Time: 21:20:17
(UTC+00:00)

Daily predictions for brighter satellites

Satellite Brightness Start Highest point End
(mag) Time Altitude Azimuth Time Altitude Azimuth Time Altitude Azimuth
Lacrosse 5 rocket 1.6 16:30:45 10° WSW 16:35:03 66° NNW 16:39:06 10° ENE
Cosmos 2333 Rocket 2.7 16:30:16 10° SW 16:36:00 64° NW 16:41:46 10° NNE
FALCON 9 DEB 3.9 16:32:38 10° SW 16:36:00 45° SSE 16:39:22 10° ENE
Meteor 2-6 Rocket 4.2 16:30:53 10° S 16:36:17 89° E 16:41:50 10° NNE
STARLINK-46 2.7 16:35:51 10° W 16:38:29 53° N 16:41:06 10° ENE
SL-4 R/B 1.8 16:35:11 10° W 16:38:52 78° N 16:42:50 10° E
SL-16 R/B 4.2 16:36:46 10° WNW 16:40:39 18° NNW 16:44:33 10° N
Cosmos 1862 Rocket 3.7 16:38:36 10° S 16:42:54 60° E 16:47:17 10° NNE
Radarsat Rocket 3.9 16:37:06 10° SSE 16:43:03 84° ENE 16:48:55 10° NNW
Cosmos 1484 Rocket 4.4 16:41:19 10° S 16:45:06 41° W 16:48:56 10° NNW
Cosmos 405 Rocket 4.5 16:48:25 10° NE 16:49:45 12° ENE 16:51:06 10° E
ATLAS 2AS CENTAUR R/B 3.8 16:46:18 10° W 16:53:57 45° NNW 17:01:27 10° NE
Aureole 1 Rocket 3.0 16:51:52 10° S 16:54:42 35° ESE 16:58:00 10° NE
STARLINK-60 3.2 16:51:55 10° WSW 16:55:18 72° SSE 16:58:25 12° ENE
BREEZE-M R/B 3.4 16:48:21 10° W 16:55:25 78° S 16:58:55 10° E
Cosmos 1980 3.7 16:51:30 10° SSW 16:57:10 87° ESE 17:02:53 10° NNE
Sich 1 Rocket 4.4 16:53:37 10° N 16:57:28 29° ENE 17:01:19 10° SE
Cosmos 1441 Rocket 3.4 16:57:12 10° N 17:00:54 47° ENE 17:04:32 10° SSE
H-2A R/B 2.8 17:02:48 10° SSE 17:06:23 50° ENE 17:09:59 10° N
Cosmos 2297 3.7 17:02:06 10° NNW 17:07:51 88° ENE 17:13:31 10° SSE
SMAP 3.0 17:03:19 10° SSE 17:07:55 64° ENE 17:12:32 10° N
COBE Rocket 4.2 17:04:54 10° NNE 17:09:22 43° E 17:13:52 10° SSE
STARLINK-52 3.4 17:07:16 10° SW 17:10:44 62° SSE 17:13:24 16° ENE
Okean O Rocket 2.7 17:06:53 10° S 17:11:05 48° W 17:15:20 10° NNW
Cosmos 1666 2.5 17:08:06 10° N 17:11:52 84° E 17:15:36 10° SSE
Okean 1-7 3.5 17:08:07 10° SSE 17:12:10 39° E 17:16:15 10° NNE
Cosmos 1867 3.5 17:07:35 10° NW 17:13:06 81° NE 17:18:33 10° SE
CZ-4 R/B 2.5 17:12:28 10° ESE 17:15:22 21° ENE 17:18:17 10° NNE
BREEZE-M DEB (TANK) 3.5 17:09:59 10° W 17:15:30 43° S 17:18:22 10° ESE
Cosmos 1908 Rocket 3.5 17:11:16 10° N 17:15:41 89° ENE 17:20:02 10° S
USA 215 3.6 17:10:07 13° ENE 17:16:01 55° SE 17:22:23 10° SW
Abrixas rocket 4.4 17:16:34 10° S 17:18:07 13° SSE 17:19:38 10° ESE
YAOGAN 6 3.6 17:15:37 10° ESE 17:18:36 25° ENE 17:21:38 10° N
STARLINK-29 3.2 17:15:20 10° WSW 17:18:51 73° SSE 17:21:14 19° ENE
Cosmos 2242 Rocket 3.6 17:15:17 10° S 17:19:52 88° E 17:24:30 10° N
Exosat Rocket 3.8 17:15:01 10° SW 17:20:02 68° WNW 17:25:18 10° NNE
ALOS 4.2 17:16:53 10° SSW 17:21:05 32° W 17:25:18 10° NNW
Cosmos 614 Rocket 4.2 17:17:19 10° S 17:22:11 49° ESE 17:26:37 12° NE
Cosmos 1975 3.4 17:19:25 10° N 17:23:06 33° ENE 17:26:45 10° SE
Cosmos 1092 Rocket 4.0 17:17:29 10° S 17:23:43 70° E 17:29:56 10° NNE
IRS-1C Rocket 4.1 17:18:53 10° SSE 17:24:10 86° WSW 17:29:29 10° NNW
Cosmos 1190 Rocket 4.4 17:20:01 10° S 17:24:55 44° ESE 17:29:07 14° NE
COSMO-SKYMED 1 3.8 17:23:32 18° ENE 17:25:18 22° E 17:28:44 10° SE
COSMOS 2428 4.1 17:24:15 10° WSW 17:29:22 33° NW 17:34:31 10° NNE
CZ-4B R/B 3.7 17:26:45 10° NNW 17:29:35 23° WNW 17:32:22 10° WSW
YAOGAN 1 3.5 17:27:19 10° ESE 17:30:55 26° ENE 17:34:33 10° N
Meteor 1-27 Rocket 4.3 17:26:15 10° SSW 17:32:00 64° WNW 17:37:55 10° N
Cosmos 921 Rocket 3.4 17:29:59 10° NNW 17:34:16 66° WSW 17:38:35 10° S
Lacrosse 4 Rocket 3.1 17:33:23 10° N 17:36:08 17° NNE 17:36:09 17° NNE
Okean 3 4.5 17:34:51 10° SE 17:38:15 24° E 17:38:36 24° E
Okean-O 2.5 17:34:00 10° SSE 17:38:24 70° ENE 17:42:50 10° N
Cosmos 1174 3.8 17:33:49 10° SSW 17:38:33 78° SE 17:40:52 24° NE
Cosmos 1943 4.5 17:38:36 10° SE 17:42:30 20° E 17:42:49 19° E
Cosmos 2360 Rocket 4.4 17:39:51 10° WNW 17:43:14 16° NNW 17:46:38 10° N
Cosmos 1656 Rocket 4.3 17:38:55 10° NNW 17:43:46 31° NE 17:46:04 23° E
Cosmos 1140 Rocket 3.5 17:45:54 10° S 17:50:55 58° ESE 17:54:13 21° NE
Cosmos 2369 Rocket 2.1 17:45:39 10° NNW 17:51:17 64° ENE 17:56:53 10° SE
NOSS 3-1 (C) 4.0 17:44:17 10° NW 17:51:28 68° NE 17:59:49 10° ESE
USA 267 3.5 17:45:31 10° SE 17:52:03 70° SW 17:58:35 10° WNW
Cosmos 1743 2.8 17:48:45 10° NNW 17:52:39 80° W 17:56:32 10° S
Cosmos 1428 Rocket 4.4 17:49:07 10° S 17:55:17 76° E 18:01:35 10° NNE
STARLINK-43 3.8 17:52:17 10° SW 17:55:52 47° SSE 17:56:49 37° ESE
S3M 4.0 17:50:01 10° N 17:56:08 57° ENE 18:02:10 10° SSE
Envisat 3.0 17:53:43 10° SSE 17:58:48 85° WSW 18:03:55 10° NNW
Cosmos 1023 Rocket 4.4 17:54:17 10° SSW 17:59:20 69° ESE 18:02:34 23° NNE
SL-16 R/B 2.2 17:56:17 10° SSW 18:01:59 84° WNW 18:06:14 19° NNE
Cosmos 468 Rocket 4.2 17:57:02 10° NNW 18:02:02 44° ENE 18:04:48 24° ESE
Cosmos 2151 Rocket 3.7 17:58:08 10° N 18:02:26 49° ENE 18:06:42 10° SSE
USA 229 DEB 3.8 17:55:49 10° NW 18:03:01 75° NE 18:10:32 10° SE
USA 229 3.8 17:55:56 10° NW 18:03:06 75° NE 18:10:37 10° SE
Meteor 1-18 Rocket 4.1 17:57:28 10° S 18:03:07 75° E 18:08:43 10° NNE
STARLINK-67 3.0 18:01:19 10° WNW 18:04:03 56° SSW 18:04:16 53° S
Cosmos 1553 Rocket 4.0 17:59:49 10° N 18:06:15 84° E 18:12:40 10° S
Cosmos 407 Rocket 3.6 18:02:58 10° SSW 18:08:11 78° WNW 18:12:09 18° NNE
NOSS 3-1 (A) 4.0 18:01:19 10° NW 18:08:26 62° NE 18:14:13 21° ESE
Cosmos 2237 Rocket 3.4 18:03:53 10° WSW 18:09:08 37° NW 18:13:54 12° NNE
Cosmos 1603 4.2 18:04:16 10° S 18:09:34 40° ESE 18:10:51 35° ENE
Cosmos 1943 Rocket 2.2 18:04:01 10° NNW 18:09:42 85° WSW 18:15:18 10° SSE
STARLINK-46 3.6 18:10:16 10° WNW 18:12:09 40° NW 18:12:09 40° NW
FALCON 9 DEB 3.1 18:09:33 10° W 18:13:02 67° N 18:13:15 64° NNE
SKYMED 2 3.5 18:12:11 37° NE 18:13:43 62° ESE 18:18:01 10° S
Lacrosse 5 rocket 2.2 18:10:53 10° WNW 18:14:43 34° N 18:15:14 33° NNE
Cosmos 2219 Rocket 4.2 18:10:45 10° W 18:14:50 20° NW 18:18:55 10° NNE
Cosmos 2026 Rocket 4.2 18:10:45 10° SSW 18:16:46 71° WNW 18:22:53 10° N
NOAA 15 4.4 18:11:46 10° SSE 18:17:00 74° ENE 18:22:15 10° NNW
FengYun 1-2 T 4.2 18:11:35 10° SSE 18:17:05 83° WSW 18:22:39 10° NNW
SL-4 R/B 2.0 18:14:43 10° WNW 18:18:32 73° SSW 18:19:20 54° SE
STARLINK-80 3.9 18:16:37 10° SW 18:20:09 44° SSE 18:20:09 44° SSE
Cosmos 2333 Rocket 4.3 18:17:23 10° WNW 18:21:27 19° NNW 18:25:33 10° NNE
CZ-4C R/B 2.7 18:18:00 10° S 18:22:33 35° ESE 18:22:33 35° ESE
IRIDIUM 106 4.4 18:18:29 10° SSE 18:23:33 53° E 18:25:24 35° NNE
SeaSat 1 4.0 18:26:42 21° NNE 18:26:42 21° NNE 18:29:06 10° NNW
Okean 1 4.0 18:21:27 10° SSW 18:25:20 53° WNW 18:27:58 19° N
Cosmos 405 Rocket 2.7 18:22:34 10° NNW 18:26:18 77° W 18:30:00 10° S
Lacrosse 5 2.5 18:22:37 10° SSW 18:27:18 38° SE 18:27:22 38° SE
CSL-04 Rocket 3.5 18:23:08 10° SSE 18:28:25 83° ENE 18:33:47 10° NNW
Cosmos 2208 Rocket 4.4 18:23:16 10° NNW 18:28:10 43° NE 18:28:10 43° NE
Okean 2 Rocket 3.5 18:24:24 10° NNW 18:28:51 65° W 18:33:19 10° S
USA 116 4.3 18:30:02 47° NE 18:31:19 62° E 18:36:12 10° S
STARLINK-60 3.9 18:28:45 10° W 18:31:24 45° NW 18:31:24 45° NW
Meteor 2-4 Rocket 3.6 18:28:54 10° S 18:34:42 68° E 18:37:10 35° NNE
Cosmos 2221 Rocket 3.8 18:33:22 10° SSW 18:37:49 70° WNW 18:39:45 33° N
Cosmos 1570 Rocket 4.0 18:36:22 10° NNW 18:41:08 58° NE 18:41:08 58° NE
Ariane Rocket 3.9 18:43:51 35° N 18:43:51 35° N 18:46:53 10° N
Cosmos 883 Rocket 4.4 18:36:31 10° N 18:42:53 76° E 18:49:10 10° SSE
Gbstr 26 Del rocket 4.3 18:38:06 10° SW 18:44:37 43° SSE 18:45:06 42° SE
Cosmos 192 4.3 18:40:07 10° NNW 18:44:36 65° NNE 18:44:36 65° NNE
Cosmos 2315 Rocket 3.9 18:38:58 10° N 18:45:18 65° ENE 18:51:30 10° SSE
Cosmos 2344 4.3 18:36:44 10° NW 18:46:03 85° NE 18:58:08 13° SE
ATLAS 2AS CENTAUR R/B 4.0 18:39:53 10° WNW 18:46:55 32° N 18:49:12 28° NNE
Cosmos 1763 Rocket 3.2 18:42:39 10° NNW 18:47:46 78° ENE 18:47:49 78° ENE
Meteor 2-8 Rocket 4.2 18:43:11 10° N 18:49:16 75° ENE 18:55:19 10° SSE
CZ-4 R/B 2.4 18:46:29 10° S 18:50:11 43° W 18:53:53 10° NNW
Meteor 1-19 Rocket 4.5 18:45:53 10° SSW 18:51:18 63° WNW 18:55:10 19° N
CSL-04 Debris 4.5 18:46:19 10° S 18:51:43 66° WSW 18:57:08 10° NNW
USA 215 3.3 18:57:28 50° NE 18:59:12 71° NNW 19:05:42 10° WSW
Cosmos 1241 Rocket 4.5 18:53:48 10° SW 19:00:10 79° NW 19:01:39 55° NNE
COSMO-SKYMED 1 3.5 19:00:46 40° NNW 19:01:43 47° WNW 19:05:52 10° SW
YAOGAN 1 3.8 19:02:46 10° S 19:06:52 41° W 19:10:59 10° NNW
Lacrosse 4 Rocket 3.6 19:11:20 10° NNW 19:12:29 18° NNW 19:12:29 18° NNW
Cosmos 1943 3.6 19:20:14 10° SSW 19:24:41 57° SW 19:24:41 57° SW
Cosmos 1656 Rocket 4.1 19:22:18 10° NW 19:27:30 58° WSW 19:27:30 58° WSW
Cosmos 2369 Rocket 4.2 19:30:18 10° NW 19:34:53 26° WSW 19:39:27 10° SSW
SL-16 R/B 4.1 19:42:34 10° W 19:47:00 23° NW 19:48:08 21° NNW
Lacrosse 5 rocket 4.4 19:50:40 10° WNW 19:50:53 11° NW 19:50:53 11° NW
Lacrosse 5 4.2 20:05:01 10° WSW 20:06:35 20° WSW 20:06:35 20° WSW
CZ-4C R/B 4.0 20:05:34 10° WSW 20:07:47 26° WSW 20:07:47 26° WSW
ATLAS 2AS CENTAUR R/B 4.3 20:32:22 10° NW 20:36:38 30° NNW 20:36:38 30° NNW
